CAPE
0 0 0 0 0 0 0 0 0 0 0 0 0 0 0 0 0 0 0 0 0 0 0 0 0 0 0 0 0 0 215 798 942 1318 2019 2257 2375 2336 2324 2406 2518 2646 2732 2785 2712 2624 2286 1842 1426 1404 1345 1265 1210 1166 1133 1146 1108 1187 1236 1186 1098 1098 1112 1155 1110 1170 1199 1168 1210 1240 1223 1136 1001 996 1004 935 844 865 710 797 807 719 829 926 957 934
0 0 0 0 0 0 0 0 0 0 0 0 0 0 0 0 0 0 0 0 0 0 0 0 0 0 0 0 0 0 1 515 673 1030 1705 2043 2211 2371 2427 2451 2571 2716 2783 2712 2447 2039 1906 1717 1554 1392 1283 1268 1219 1212 1124 1255 1191 1213 1222 1244 1207 1147 1121 1150 1139 1173 1192 1187 1248 1278 1149 1065 1119 1043 937 856 818 737 834 942 921 926 877 1002 996 900
0 0 0 0 0 0 0 0 0 0 0 0 0 0 0 0 0 0 0 0 0 0 0 0 0 0 0 0 0 0 0 299 564 863 1411 1816 2067 2416 2454 2475 2535 2601 2606 2562 2248 2111 1764 1642 1536 1391 1316 1352 1289 1287 1110 1155 1239 1258 1317 1298 1212 1079 1158 1146 1016 1131 1250 1266 1293 1213 1178 1225 1082 1006 828 726 707 798 1050 1076 1044 941 908 934 878 740
0 0 0 0 0 0 0 0 0 0 0 0 0 0 0 0 0 0 0 0 0 0 0 0 0 0 0 0 0 0 0 0 418 716 1278 1731 2129 2246 2222 2414 2410 2358 2442 2523 2474 2122 1466 1471 1436 1407 1361 1387 1359 1338 1127 1163 1233 1253 1285 1299 1163 1096 1179 1144 1076 1112 1223 1239 1306 1126 1166 1159 1063 835 712 698 774 1008 1110 1126 1030 983 936 973 894 836
0 0 0 0 0 0 0 0 0 0 0 0 0 0 3 0 0 0 0 0 0 0 0 0 0 0 0 0 0 111 87 0 0 713 1217 1732 2028 2058 2118 2253 2259 2298 2434 2356 2198 1757 1387 1397 1388 1387 1356 1416 1440 1378 1205 1075 1125 1199 1330 1337 1214 1083 1168 1207 1225 1336 1366 1303 1093 937 1037 1132 901 707 782 824 946 1071 1130 1091 1035 986 955 908 888 881
0 0 0 0 0 0 0 0 0 0 0 0 0 2 4 0 0 0 0 0 0 0 0 0 0 0 0 0 0 454 368 40 294 828 1290 1702 1888 1942 2036 2120 2197 2354 2377 2289 1995 1558 1315 1342 1365 1423 1414 1456 1448 1351 1236 1130 1097 1315 1346 1163 994 1041 1125 1190 1338 1400 1185 908 1011 1059 1126 1020 730 734 781 809 826 837 828 842 863 836 816 830 832 788
0 0 0 0 0 0 0 0 0 0 0 0 0 2 4 0 0 0 17 0 0 0 0 0 0 0 0 0 0 583 558 595 723 911 1310 1617 1844 2000 2064 2123 2214 2417 2368 2149 1827 1384 1324 1358 1448 1472 1442 1438 1371 1308 1237 1108 1278 1398 1276 1081 1006 1042 1078 1167 1184 1108 798 1018 1200 1134 1120 918 712 770 785 713 660 618 503 519 547 615 600 619 594 485
0 0 0 0 0 0 0 0 0 0 0 0 0 0 0 0 0 0 0 1 11 0 0 0 0 0 0 0 31 619 759 842 930 1099 1348 1629 1903 2025 2056 2118 2249 2425 2238 2184 1852 1316 1287 1390 1509 1459 1391 1375 1289 1244 1154 1147 1424 1380 1267 1138 954 906 1071 1122 938 796 848 1018 1148 969 957 840 702 760 720 601 534 425 350 370 440 473 480 464 248 0
0 0 0 0 0 0 0 9 0 0 0 2 0 0 0 0 0 0 0 18 14 1 0 0 0 0 0 0 424 538 813 881 1025 1196 1437 1671 1906 1932 2012 2014 2236 2402 2105 2063 1740 1314 1278 1430 1429 1302 1194 1248 1199 1106 1070 1105 1415 1421 1265 1230 1022 812 906 1009 982 877 930 1068 965 804 792 675 668 674 594 503 390 273 138 192 277 353 377 258 45 0
0 0 0 0 0 0 0 2 0 0 0 3 5 0 0 0 0 2 0 20 16 0 0 0 0 0 7 6 306 448 877 925 1035 1253 1452 1612 1808 1816 1895 2162 2410 2269 2137 2001 1627 1289 1234 1324 1188 1172 1114 1133 1076 1028 1115 1271 1383 1424 1344 1288 1146 864 902 1016 980 946 962 1011 783 686 664 642 589 561 462 342 254 145 148 192 214 219 203 127 0 0
0 0 0 0 0 0 0 0 0 0 12 14 10 7 12 21 14 0 0 9 13 0 0 0 0 0 0 0 0 375 580 888 1020 1180 1306 1421 1620 1861 2059 2275 2342 2297 2157 2028 1556 1280 1290 1245 1204 1222 1159 1121 1063 1011 1123 1274 1185 1056 1055 1177 1135 1020 1066 1080 1027 1015 1016 989 730 643 610 524 414 353 221 178 186 156 161 172 166 135 24 0 0 0
0 0 0 0 0 0 0 0 0 0 12 18 21 8 12 13 0 0 0 0 11 0 1 0 0 5 7 158 134 286 358 767 1007 1184 1181 1406 1633 1952 2150 2300 2320 2241 2246 1983 1392 1270 1402 1297 1255 1248 1190 1126 1165 1155 1139 1179 1178 970 972 1023 1086 1199 1182 1097 1067 1022 941 901 665 625 544 456 424 381 64 178 201 184 138 92 55 0 0 0 0 0
0 0 0 0 0 0 0 0 0 0 0 0 1 19 4 1 0 0 0 0 0 0 4 4 1 0 0 426 518 460 442 628 941 1138 1282 1401 1658 1862 2016 1982 2136 2197 2128 1625 1168 1266 1314 1211 1284 1296 1282 1207 1143 1297 1283 1201 1174 1044 1040 1152 1242 1292 1184 1083 997 857 747 751 662 586 480 461 439 356 172 211 234 218 179 142 54 0 0 0 0 0
0 0 0 0 0 0 0 1 0 1 0 0 0 11 1 0 0 0 0 0 19 0 17 4 2 1 72 402 555 530 497 496 848 1127 1437 1637 1927 2032 2033 1971 2028 1827 1246 975 1062 1082 1096 1212 1328 1331 1318 1261 1187 1207 1214 1182 1208 1099 1048 1223 1314 1266 1117 1000 800 658 633 616 618 563 434 464 414 328 87 122 227 238 212 104 0 0 0 0 0 0
0 0 0 0 0 0 0 0 0 0 0 0 0 0 0 0 0 0 0 55 0 15 11 7 0 0 214 228 572 677 547 622 810 1134 1493 1735 1831 1798 1686 1721 948 788 770 398 916 1057 1135 1246 1342 1358 1298 1223 1186 1164 1116 1202 1303 1109 1022 1145 1293 1273 1043 829 662 619 618 606 588 535 430 438 483 112 177 183 208 202 142 5 52 0 0 0 0 0
0 0 0 0 0 0 0 0 0 0 0 0 0 0 0 0 0 0 0 0 15 2 7 270 262 361 452 732 800 685 774 796 817 1145 1473 1603 1379 1278 1105 937 740 554 516 668 820 1018 1130 1245 1326 1304 1219 1162 1159 1169 1097 1098 1251 1169 978 1019 1219 1257 977 834 615 616 631 574 544 541 526 520 420 32 186 180 137 117 108 114 112 0 0 0 0 0
0 0 0 0 0 0 2 3 0 0 1 32 0 0 0 0 0 0 0 0 24 2 5 378 427 690 742 822 752 908 772 863 951 1062 1209 1219 1229 1132 1058 846 728 654 561 669 737 907 1106 1215 1242 1216 1189 1171 1156 1166 1141 1128 1139 1108 990 910 1011 1142 917 904 582 574 576 563 576 593 563 452 112 145 172 104 37 128 146 159 139 95 0 0 0 0
0 0 0 0 0 0 0 0 0 0 0 0 0 0 0 0 0 0 25 6 0 0 55 221 476 483 378 483 843 860 918 881 1049 1104 1129 1162 1043 946 840 796 700 624 632 624 616 776 1020 1095 1114 1104 1157 1228 1219 1202 1202 1176 1158 1051 1000 901 834 943 859 931 636 578 619 653 648 614 455 235 392 497 309 69 0 134 158 142 32 0 0 0 0 0
0 0 0 0 0 0 0 0 0 0 0 0 0 0 5 38 34 0 0 0 0 0 30 253 348 370 90 356 620 865 897 854 926 1075 1042 972 833 632 452 608 756 785 742 633 634 722 846 940 986 1052 1098 1124 1158 1230 1259 1232 1120 1097 1005 925 768 778 784 970 777 739 758 739 679 522 483 573 602 361 81 100 122 126 97 62 66 10 0 0 0 0
0 0 0 0 0 0 0 0 0 0 0 0 0 0 0 0 0 0 0 0 0 0 0 117 183 305 218 242 611 817 823 737 776 745 615 648 625 302 584 775 855 924 861 719 680 683 733 805 846 933 1090 1136 1112 1186 1232 1262 1225 1125 988 865 757 661 722 805 544 663 722 776 774 736 721 656 533 79 0 82 82 83 75 141 19 6 0 0 0 0
0 0 0 0 0 0 0 0 0 0 0 0 0 0 0 0 0 0 0 0 0 0 0 5 40 28 257 210 465 722 719 673 540 797 446 335 656 748 778 883 988 995 905 799 829 843 802 784 771 840 1014 1101 1138 1088 1132 1184 1221 1124 1012 779 733 606 708 536 708 769 660 712 699 766 707 446 290 17 0 0 0 130 209 11 0 0 0 0 0 0
0 0 0 0 0 0 0 0 0 0 0 0 0 0 0 0 0 7 0 0 0 0 0 0 1 358 388 304 331 455 518 515 259 561 420 138 441 742 843 780 767 810 930 654 660 691 719 722 759 990 1059 1052 1154 1098 1043 696 623 570 985 841 720 589 410 489 479 676 742 621 520 618 400 242 234 0 0 0 0 16 220 0 0 0 0 0 0 0
0 0 0 0 0 0 0 0 0 0 0 0 0 28 0 0 0 0 0 0 0 0 0 0 0 138 348 358 355 302 452 386 137 542 581 185 362 482 564 500 278 809 960 766 689 727 595 719 627 803 940 1037 922 919 933 676 524 595 232 569 841 621 509 501 518 657 612 495 285 296 244 266 209 0 0 0 0 29 203 92 0 0 0 0 0 0
333 0 21 0 0 0 0 0 0 0 0 0 0 0 0 0 0 0 0 0 0 0 0 0 14 163 263 419 410 381 453 380 401 558 255 246 358 662 482 465 457 564 766 614 423 572 516 592 583 610 714 820 850 506 815 396 17 256 156 352 670 624 724 971 634 529 440 316 196 0 84 206 0 0 0 0 0 28 100 51 0 0 0 0 0 0
0 1 2 5 0 0 0 0 0 0 0 0 0 0 0 0 0 0 0 0 0 0 0 0 4 349 488 392 501 572 521 552 399 250 137 168 437 640 569 557 504 517 633 690 512 484 410 353 288 93 497 600 693 631 601 583 369 114 44 543 656 681 740 888 844 513 324 105 0 0 80 92 0 0 0 0 0 0 17 0 0 0 0 0 0 0
0 0 0 0 0 0 0 0 0 0 0 0 0 0 0 0 0 0 0 0 0 0 0 0 172 370 266 257 307 252 356 517 320 210 236 213 266 202 553 324 792 772 688 548 525 508 400 335 384 310 74 486 597 693 581 549 371 124 106 131 116 553 710 804 903 540 330 44 31 141 153 0 0 0 0 0 0 0 0 0 0 0 0 0 0 0
0 4 0 0 0 0 0 0 0 0 0 0 0 0 0 0 0 0 0 0 0 0 0 0 171 434 309 365 346 386 280 371 394 507 428 318 218 561 514 499 127 453 457 340 444 376 325 340 352 134 412 444 534 525 532 464 165 104 116 378 301 244 610 694 908 775 543 29 23 209 246 138 0 107 32 32 7 0 0 0 0 0 0 0 0 0
1 3 0 0 0 0 0 0 0 0 0 0 0 0 0 0 0 0 79 90 0 0 0 58 327 290 293 296 213 226 221 329 322 342 336 301 312 384 470 506 457 326 352 386 342 229 182 38 50 108 148 279 274 316 328 344 97 117 45 87 141 88 138 272 641 592 480 280 158 187 250 177 80 81 39 8 0 0 0 0 0 0 0 0 0 0
0 0 0 0 0 0 0 0 0 0 0 0 0 0 0 0 0 0 0 23 50 0 114 233 335 211 199 220 227 286 393 394 233 167 156 381 444 471 576 529 425 381 383 358 282 99 86 7 27 118 162 126 166 247 311 301 35 70 80 79 40 180 32 246 319 664 652 506 326 49 184 139 86 15 26 3 0 0 0 0 0 0 0 0 0 0
0 0 0 0 0 0 0 0 0 0 0 0 0 0 0 0 0 0 0 0 1 9 205 197 442 308 7 136 204 299 317 317 262 226 233 465 406 426 498 481 448 431 389 104 129 73 93 0 22 77 176 192 195 227 191 161 23 15 23 30 72 217 266 179 294 310 457 448 402 269 125 0 33 8 31 8 3 2 0 0 0 0 0 0 0 0
0 1 0 0 0 0 1 0 0 0 0 0 0 0 0 0 1 1 0 0 0 0 73 180 366 342 2 116 231 379 323 170 310 252 206 456 471 383 364 94 144 150 148 157 71 2 10 0 0 46 88 122 161 30 86 80 52 28 28 52 71 66 81 181 192 268 398 346 313 92 69 17 0 0 0 2 0 0 0 1 0 0 0 0 0 0
0 0 0 0 0 0 0 0 0 0 0 0 0 0 0 0 0 0 0 0 0 30 2 7 20 174 1 316 219 308 221 190 236 220 190 303 407 381 113 258 222 209 138 46 241 182 155 0 10 44 75 107 104 85 12 13 22 32 154 165 130 175 206 127 124 173 232 274 194 12 59 5 5 0 0 0 0 0 33 32 16 26 108 35 0 0
0 0 0 0 2 7 0 0 0 0 3 2 0 0 0 0 0 0 0 0 0 0 0 8 8 1 3 136 212 194 153 170 185 196 212 132 263 378 132 271 240 193 162 55 2 4 2 0 11 49 59 48 26 15 25 22 19 15 10 5 64 115 104 88 104 127 149 144 123 0 0 3 56 29 0 0 0 0 38 103 144 124 142 9 0 0
0 0 1 0 0 1 0 0 8 9 1 2 0 0 0 0 3 0 0 0 0 0 0 0 0 0 0 76 125 298 163 202 188 152 176 175 108 67 126 147 130 155 119 60 6 36 46 33 0 10 14 2 0 5 22 21 7 2 2 2 6 40 87 110 148 150 121 130 137 70 0 0 18 0 0 3 0 0 3 37 185 187 254 293 283 237
0 1 0 0 2 4 0 1 9 10 3 0 0 0 0 0 0 2 0 0 8 17 39 48 150 69 28 158 253 250 144 88 60 135 135 170 121 84 84 92 115 167 144 82 19 16 18 22 19 0 0 0 0 5 13 15 8 7 8 3 0 3 2 22 38 72 84 111 151 119 2 0 127 75 34 12 9 11 63 0 0 116 0 312 337 366
0 1 5 0 7 2 0 0 6 2 0 7 0 0 0 0 0 0 0 5 3 5 5 26 124 148 126 93 107 64 61 60 79 57 109 48 6 21 3 48 66 109 136 102 33 1 0 0 33 56 15 2 0 0 0 0 0 0 0 0 0 0 0 0 0 4 9 0 0 0 0 23 72 187 186 191 128 18 23 22 15 0 0 0 151 68
17 22 21 1 4 6 4 10 0 0 0 0 0 0 0 0 0 0 0 0 1 1 1 5 26 29 76 66 36 23 3 1 35 30 32 13 6 4 6 0 1 7 12 28 12 3 2 0 0 0 1 2 5 5 1 0 0 0 0 0 0 0 0 0 0 0 0 0 0 0 0 3 15 142 114 111 176 175 119 156 152 208 214 264 329 352
61 60 41 12 3 1 3 1 0 0 0 0 1 0 0 0 0 0 0 0 1 5 2 0 1 6 0 0 20 6 2 0 0 42 17 27 39 8 0 0 0 1 0 0 0 0 0 0 0 0 0 0 5 2 0 0 0 0 0 0 0 0 0 0 0 0 0 0 0 0 0 0 0 2 9 14 0 0 3 10 14 24 2 113 175 173
0 5 28 0 10 0 0 2 3 0 0 0 1 1 0 0 0 0 0 0 0 2 1 0 0 0 0 0 1 1 2 0 1 11 23 23 30 4 0 4 0 0 0 0 0 0 0 0 0 0 0 0 0 0 0 0 0 0 0 0 0 0 0 0 0 0 0 0 2 1 2 3 4 13 26 16 10 11 35 59 61 51 53 46 15 71
0 0 4 4 30 7 20 0 1 2 0 0 2 3 0 0 0 0 0 0 0 1 3 3 0 0 4 5 1 0 1 8 0 2 5 4 1 0 0 0 0 0 0 0 4 0 0 0 2 0 1 2 2 2 1 1 3 2 0 0 2 3 4 2 1 0 1 1 0 0 0 0 0 1 6 16 16 24 30 42 36 26 32 37 30 18
0 0 3 19 30 42 31 7 0 0 0 0 3 3 1 1 0 0 0 0 0 0 0 0 6 8 10 4 4 0 0 0 0 5 7 4 1 1 0 0 0 0 1 3 6 5 6 7 2 2 2 4 2 4 6 9 9 6 6 2 4 5 3 0 0 0 0 0 0 0 0 0 0 0 0 0 4 12 26 25 22 28 34 41 37 24
0 0 5 3 23 18 14 16 3 0 0 0 0 0 1 0 0 0 0 0 0 0 0 1 8 11 8 10 6 4 1 0 1 2 6 2 0 0 2 2 2 0 2 7 16 17 10 6 8 3 1 3 5 6 8 12 15 15 21 21 17 16 11 8 3 0 0 0 0 0 0 0 0 0 0 0 0 0 0 0 0 1 2 2 1 1
0 0 0 4 4 0 1 3 6 9 0 0 0 0 1 1 0 0 0 0 0 0 0 2 8 14 14 16 14 10 10 4 0 2 5 5 3 4 1 0 1 4 4 3 4 6 8 6 3 2 1 0 2 3 5 8 15 18 14 19 22 22 18 16 14 11 6 2 0 0 0 0 0 0 0 0 0 0 0 0 0 0 0 0 0 0
6 0 0 0 0 0 0 1 1 0 3 0 0 0 0 0 0 0 0 0 0 0 2 6 6 12 12 5 12 14 9 6 4 5 4 2 1 0 1 1 0 0 0 0 0 0 0 0 0 0 0 0 1 1 0 2 9 14 14 13 12 11 11 10 10 10 9 6 1 0 0 0 0 0 0 0 0 0 0 0 0 0 0 0 0 0
0 0 0 0 0 0 1 1 0 0 0 0 0 0 0 0 0 2 2 0 0 2 5 7 6 9 9 3 5 1 1 0 0 0 0 0 0 0 0 0 0 0 0 0 0 0 0 0 0 0 0 0 0 0 3 3 1 1 3 4 1 4 7 3 2 2 0 0 0 0 0 0 0 0 0 0 0 0 0 0 0 0 0 0 0 0
0 0 0 0 0 0 0 0 0 0 0 0 0 0 0 0 0 1 0 3 3 0 1 2 3 3 2 1 0 0 0 0 0 0 0 0 0 0 0 0 0 0 0 0 0 0 0 0 0 0 0 0 0 0 0 0 0 0 4 1 0 0 0 0 0 0 0 0 0 0 0 0 0 0 0 0 0 0 0 0 0 0 0 0 0 0
0 0 0 0 0 0 0 0 2 1 0 2 1 0 1 4 3 2 5 4 4 1 0 1 1 1 5 6 4 2 1 1 0 0 0 0 0 0 0 0 0 0 0 0 0 0 0 0 0 0 0 0 0 0 0 0 0 0 0 0 0 0 0 0 0 0 0 0 0 0 0 0 0 0 0 0 0 0 0 0 0 0 0 0 0 0
0 0 0 0 0 0 0 0 1 2 0 1 2 2 0 1 1 1 2 2 1 1 0 1 0 0 1 4 5 5 5 3 2 0 0 0 0 0 0 0 0 1 0 0 0 0 0 0 0 0 0 0 0 0 0 0 0 0 0 0 0 0 0 0 0 0 0 0 0 0 0 0 0 0 0 0 0 0 0 0 0 0 0 0 0 0
0 0 0 0 0 0 0 0 0 1 6 6 6 4 2 3 6 3 2 2 2 0 0 0 0 0 0 1 3 4 3 4 5 1 0 0 0 0 0 0 0 0 0 0 0 0 0 0 0 0 0 0 0 0 0 0 0 0 0 0 0 0 0 0 0 0 0 0 0 0 0 0 0 0 0 0 0 0 0 0 0 0 0 0 0 0
0 0 0 0 0 0 0 0 0 0 0 11 15 6 7 11 9 4 4 9 8 4 2 0 0 1 2 3 3 2 0 1 0 0 0 0 0 0 0 0 0 0 0 0 0 0 0 0 0 0 0 0 0 0 0 0 0 0 0 0 0 0 0 0 0 0 0 0 0 0 0 0 0 0 0 0 0 0 0 0 0 0 0 0 0 0
0 0 0 0 0 0 0 0 0 0 0 0 5 7 0 4 9 11 13 15 15 8 6 7 8 6 2 2 2 0 0 0 0 0 0 0 0 0 0 0 0 0 0 0 0 0 0 0 0 0 0 0 0 0 0 0 0 0 0 0 0 0 0 0 0 0 0 0 0 0 0 0 0 0 0 0 0 0 0 0 0 0 0 0 0 0
Wind_Speed
nan nan nan nan nan nan nan nan nan nan nan nan nan nan nan nan nan nan nan nan nan nan nan nan nan nan nan nan nan nan 33 29 33 34 30 27 27 28 30 28 23 17 13 11 14 13 16 20 20 20 21 23 24 25 25 25 23 23 24 24 21 18 19 21 21 19 17 15 16 15 14 13 12 13 14 13 11 12 13 13 14 13 12 11 10 10
nan nan nan nan nan nan nan nan nan nan nan nan nan nan nan nan nan nan nan nan nan nan nan nan nan nan nan nan nan nan nan 26 29 30 27 25 28 29 32 29 22 18 18 17 13 13 16 17 17 18 20 23 25 24 25 24 23 22 22 23 22 20 19 20 21 20 18 16 15 15 14 13 14 15 14 13 12 12 14 15 15 14 13 12 10 10
nan nan nan nan nan nan nan nan nan nan nan nan nan nan nan nan nan nan nan nan nan nan nan nan nan nan nan nan nan nan nan 24 25 26 22 27 29 29 29 25 22 19 16 15 12 13 16 18 18 18 19 20 20 24 24 24 24 22 22 23 22 19 18 18 20 20 19 18 17 16 14 14 13 14 15 13 12 14 15 15 14 13 12 11 10 10
nan nan nan nan nan nan nan nan nan nan nan nan nan nan nan nan nan nan nan nan nan nan nan nan nan nan nan nan nan nan nan nan 23 20 21 26 29 28 25 22 21 19 17 18 16 17 18 19 20 19 19 20 20 21 22 23 24 22 23 24 22 18 16 18 19 20 20 20 18 17 16 15 13 10 12 13 15 16 15 13 13 11 10 9 10 9
nan nan nan nan nan nan nan nan nan nan nan nan nan nan nan nan nan nan nan nan nan nan nan nan nan nan nan nan nan 31 nan nan nan 31 31 26 23 22 22 20 20 20 20 20 19 19 21 23 21 19 18 18 19 20 19 21 22 21 22 20 18 17 17 19 20 21 21 22 21 19 18 16 15 14 13 15 16 14 11 11 10 8 9 9 9 9
nan nan nan nan nan nan nan nan nan nan nan nan nan nan nan nan nan nan nan nan nan nan nan nan nan nan nan nan nan 26 30 nan 26 30 26 26 22 19 19 21 21 17 16 20 22 22 24 26 24 17 17 19 19 19 18 18 20 20 19 18 18 19 20 21 21 21 21 20 20 19 17 16 14 13 14 12 9 9 9 7 8 9 8 8 9 8
nan nan nan nan nan nan nan nan nan nan nan nan nan nan nan nan nan nan nan nan nan nan nan nan nan nan nan nan nan 25 27 27 28 27 27 25 19 15 17 21 21 16 14 15 19 23 27 29 24 18 19 22 23 20 20 19 19 20 20 20 20 21 21 22 21 20 20 21 19 17 16 16 13 12 13 13 13 11 10 9 8 7 8 8 10 10
nan nan nan nan nan nan nan nan nan nan nan nan nan nan nan nan nan nan nan nan nan nan nan nan nan nan nan nan nan 27 28 26 27 27 26 22 19 16 18 20 17 12 12 18 22 25 27 27 23 22 25 26 23 22 21 20 19 21 21 20 18 19 21 22 22 19 18 20 18 18 17 15 12 11 12 13 15 15 12 11 10 10 11 11 12 nan
nan nan nan nan nan nan nan nan nan nan nan nan nan nan nan nan nan nan nan nan nan nan nan nan nan nan nan nan 27 27 32 24 21 22 22 22 21 20 21 21 16 13 17 21 24 26 27 27 24 24 26 25 23 22 21 19 19 20 20 19 17 19 21 22 21 18 16 18 18 18 17 14 13 13 15 16 17 15 14 14 13 13 13 14 nan nan
nan nan nan nan nan nan nan nan nan nan nan nan nan nan nan nan nan nan nan nan nan nan nan nan nan nan nan nan 29 30 28 23 19 18 18 21 22 24 24 22 20 19 21 22 23 25 25 24 23 22 23 24 23 21 20 19 19 20 19 18 18 19 19 19 20 18 17 18 18 18 17 15 15 16 18 19 19 17 17 17 15 14 15 15 nan nan
nan nan nan nan nan nan nan nan nan nan nan nan nan nan nan nan nan nan nan nan nan nan nan nan nan nan nan nan nan 28 23 21 23 21 18 18 19 21 21 20 20 21 22 23 24 23 20 19 20 22 22 23 23 21 20 19 19 19 18 17 18 18 17 17 17 18 18 18 18 19 18 15 15 16 19 21 21 20 19 18 16 15 nan nan nan nan
nan nan nan nan nan nan nan nan nan nan nan nan nan nan nan nan nan nan nan nan nan nan nan nan nan nan nan 25 26 24 26 20 21 20 18 16 15 16 18 21 22 24 24 24 24 22 22 21 20 21 21 21 21 20 19 17 18 18 18 19 20 18 17 16 15 17 18 19 20 20 18 16 15 17 nan 20 20 19 18 nan nan nan nan nan nan nan
nan nan nan nan nan nan nan nan nan nan nan nan nan nan nan nan nan nan nan nan nan nan nan nan nan nan nan 23 23 25 24 18 16 19 19 19 20 22 25 26 26 26 25 24 23 22 24 25 22 21 20 20 19 19 18 18 18 18 18 18 20 18 18 17 15 16 17 19 19 18 18 18 18 19 19 19 19 17 17 17 nan nan nan nan nan nan
nan nan nan nan nan nan nan nan nan nan nan nan nan nan nan nan nan nan nan nan nan nan nan nan nan nan nan 28 26 29 24 20 22 25 28 28 28 29 28 28 26 24 21 21 20 20 24 26 23 19 18 19 19 18 18 18 18 17 17 17 18 16 15 15 15 16 16 18 19 18 19 20 22 22 nan 16 15 14 15 15 nan nan nan nan nan nan
nan nan nan nan nan nan nan nan nan nan nan nan nan nan nan nan nan nan nan nan nan nan nan nan nan nan 31 29 34 31 29 30 30 32 34 33 30 27 25 25 27 25 22 23 21 18 20 21 20 17 16 18 18 16 15 15 16 16 17 17 17 16 14 14 13 15 17 19 20 19 20 21 21 20 18 15 13 14 15 nan nan nan nan nan nan nan
nan nan nan nan nan nan nan nan nan nan nan nan nan nan nan nan nan nan nan nan nan nan nan 33 29 31 31 29 33 32 30 27 27 28 29 25 22 22 22 22 22 20 23 25 18 13 13 14 13 11 12 16 16 14 11 13 14 14 14 15 16 16 17 17 17 16 17 20 20 20 20 19 18 nan 18 17 16 17 18 18 19 nan nan nan nan nan
nan nan nan nan nan nan nan nan nan nan nan nan nan nan nan nan nan nan nan nan nan nan nan 32 33 33 33 33 38 37 34 30 25 23 22 22 23 20 20 24 27 28 28 24 16 11 10 10 9 7 9 12 12 10 10 11 12 12 13 13 15 18 20 21 20 20 20 21 21 20 20 19 19 18 18 17 nan 17 18 19 18 nan nan nan nan nan
nan nan nan nan nan nan nan nan nan nan nan nan nan nan nan nan nan nan nan nan nan nan nan 37 34 34 39 34 34 37 36 34 29 25 25 25 26 28 32 35 34 29 26 23 18 17 16 14 11 9 10 11 10 11 11 11 11 11 12 13 16 19 22 24 25 25 23 23 23 21 20 19 18 19 19 nan nan 17 19 18 nan nan nan nan nan nan
nan nan nan nan nan nan nan nan nan nan nan nan nan nan nan nan nan nan nan nan nan nan nan 37 36 37 nan 35 36 34 35 32 32 28 28 29 35 38 39 36 32 27 24 22 22 23 22 21 18 16 14 15 14 14 15 16 15 16 17 18 20 22 26 28 29 28 26 25 24 22 20 19 19 20 nan 19 18 18 nan nan nan nan nan nan nan nan
nan nan nan nan nan nan nan nan nan nan nan nan nan nan nan nan nan nan nan nan nan nan nan 36 39 36 37 36 34 31 31 29 30 31 31 32 34 35 32 28 28 25 24 25 25 26 28 29 27 24 22 21 18 18 18 18 18 20 23 26 29 31 32 36 36 29 23 21 21 20 19 18 19 nan nan nan nan nan nan 19 nan nan nan nan nan nan
nan nan nan nan nan nan nan nan nan nan nan nan nan nan nan nan nan nan nan nan nan nan nan nan nan nan 30 29 26 26 29 30 26 27 26 19 21 28 27 26 25 26 27 27 26 27 30 30 27 25 24 24 22 21 21 21 20 23 26 30 34 34 33 34 26 18 16 18 18 19 19 20 22 nan nan nan nan 21 19 nan nan nan nan nan nan nan
nan nan nan nan nan nan nan nan nan nan nan nan nan nan nan nan nan nan nan nan nan nan nan nan nan 26 24 27 25 25 26 22 13 15 19 17 19 21 21 24 23 24 27 27 27 29 27 26 26 25 27 26 24 24 26 25 27 32 35 35 31 26 24 24 19 17 20 20 21 22 22 23 25 nan nan nan nan nan 21 nan nan nan nan nan nan nan
nan nan nan nan nan nan nan nan nan nan nan nan nan nan nan nan nan nan nan nan nan nan nan nan nan 25 23 24 26 26 27 25 24 25 25 23 21 18 18 20 20 18 19 20 22 26 25 27 29 30 32 32 30 29 32 31 32 33 35 31 25 22 22 24 25 25 26 26 26 27 29 29 29 nan nan nan nan nan 21 nan nan nan nan nan nan nan
32 nan nan nan nan nan nan nan nan nan nan nan nan nan nan nan nan nan nan nan nan nan nan nan nan 25 23 25 26 28 28 27 27 27 24 21 19 20 20 20 19 15 15 16 16 18 21 24 28 29 31 30 29 29 30 28 nan 30 29 25 23 24 25 26 28 28 27 27 30 nan nan 29 nan nan nan nan nan nan nan nan nan nan nan nan nan nan
nan nan nan nan nan nan nan nan nan nan nan nan nan nan nan nan nan nan nan nan nan nan nan nan nan 23 23 24 25 26 28 27 26 25 22 23 20 21 21 22 19 16 17 17 18 18 17 19 24 nan 25 27 26 25 24 26 25 25 nan 27 28 29 26 27 28 28 28 29 nan nan nan nan nan nan nan nan nan nan nan nan nan nan nan nan nan nan
nan nan nan nan nan nan nan nan nan nan nan nan nan nan nan nan nan nan nan nan nan nan nan nan 25 21 25 26 28 29 29 28 24 22 24 25 22 22 22 22 21 20 21 21 19 20 21 20 20 22 nan 26 26 23 23 24 26 28 29 30 26 28 27 25 25 27 30 nan nan 31 29 nan nan nan nan nan nan nan nan nan nan nan nan nan nan nan
nan nan nan nan nan nan nan nan nan nan nan nan nan nan nan nan nan nan nan nan nan nan nan nan 25 28 28 28 30 30 31 30 25 21 22 23 22 21 20 21 21 21 22 23 22 22 23 24 24 24 26 29 31 31 30 29 31 31 31 28 25 25 26 24 24 28 30 nan nan 30 28 28 nan 31 nan nan nan nan nan nan nan nan nan nan nan nan
nan nan nan nan nan nan nan nan nan nan nan nan nan nan nan nan nan nan nan nan nan nan nan nan 27 31 28 29 29 30 32 32 29 25 25 25 23 23 22 22 24 24 23 23 26 27 26 nan nan 25 26 30 33 34 35 34 nan 33 nan nan 25 nan 24 23 24 26 28 29 29 29 28 28 nan nan nan nan nan nan nan nan nan nan nan nan nan nan
nan nan nan nan nan nan nan nan nan nan nan nan nan nan nan nan nan nan nan nan nan nan 30 31 32 33 32 31 30 29 30 31 29 26 24 21 21 22 24 27 27 27 26 27 24 nan nan nan nan 25 27 29 33 34 36 35 nan nan nan nan nan 23 nan 21 23 23 22 23 26 nan 25 26 nan nan nan nan nan nan nan nan nan nan nan nan nan nan
nan nan nan nan nan nan nan nan nan nan nan nan nan nan nan nan nan nan nan nan nan nan 36 41 40 38 nan 31 32 32 32 31 30 27 26 25 23 21 20 23 24 23 25 26 26 nan nan nan nan nan 30 32 33 33 34 34 nan nan nan nan nan 21 20 20 19 19 18 17 19 22 20 nan nan nan nan nan nan nan nan nan nan nan nan nan nan nan
nan nan nan nan nan nan nan nan nan nan nan nan nan nan nan nan nan nan nan nan nan nan nan 42 42 38 nan 34 35 34 34 33 33 32 31 29 29 29 28 nan 26 26 25 25 nan nan nan nan nan nan nan 25 25 nan nan nan nan nan nan nan nan nan nan 21 20 19 17 18 21 nan nan nan nan nan nan nan nan nan nan nan nan nan nan nan nan nan
nan nan nan nan nan nan nan nan nan nan nan nan nan nan nan nan nan nan nan nan nan nan nan nan nan 36 nan 37 38 36 35 35 32 29 28 28 31 30 32 30 29 28 27 nan 25 22 21 nan nan nan nan 23 24 nan nan nan nan nan 30 28 26 23 24 24 23 22 21 21 23 nan nan nan nan nan nan nan nan nan nan nan nan nan 22 nan nan nan
nan nan nan nan nan nan nan nan nan nan nan nan nan nan nan nan nan nan nan nan nan nan nan nan nan nan nan 36 44 38 37 35 33 28 28 31 30 31 33 31 29 28 26 nan nan nan nan nan nan nan nan nan nan nan nan nan nan nan nan nan nan 26 27 nan 25 25 25 25 24 nan nan nan nan nan nan nan nan nan nan 23 22 23 23 nan nan nan
nan nan nan nan nan nan nan nan nan nan nan nan nan nan nan nan nan nan nan nan nan nan nan nan nan nan nan nan 44 41 41 37 35 33 31 29 30 nan 34 32 28 27 27 nan nan nan nan nan nan nan nan nan nan nan nan nan nan nan nan nan nan nan nan 30 29 29 30 31 30 nan nan nan nan nan nan nan nan nan nan nan 22 20 21 23 23 23
nan nan nan nan nan nan nan nan nan nan nan nan nan nan nan nan nan nan nan nan nan nan nan nan 44 nan nan 39 39 42 41 nan nan 40 38 35 31 nan nan nan 30 31 29 nan nan nan nan nan nan nan nan nan nan nan nan nan nan nan nan nan nan nan nan nan nan nan nan 33 32 32 nan nan 33 nan nan nan nan nan nan nan nan 21 nan 24 23 23
nan nan nan nan nan nan nan nan nan nan nan nan nan nan nan nan nan nan nan nan nan nan nan nan 38 35 35 nan 36 nan nan nan nan nan 38 nan nan nan nan nan nan 30 31 30 nan nan nan nan nan nan nan nan nan nan nan nan nan nan nan nan nan nan nan nan nan nan nan nan nan nan nan nan nan 37 35 33 30 nan nan nan nan nan nan nan 26 nan
nan nan nan nan nan nan nan nan nan nan nan nan nan nan nan nan nan nan nan nan nan nan nan nan nan nan nan nan nan nan nan nan nan nan nan nan nan nan nan nan nan nan nan nan nan nan nan nan nan nan nan nan nan nan nan nan nan nan nan nan nan nan nan nan nan nan nan nan nan nan nan nan nan 37 36 36 36 36 34 32 30 27 27 30 29 29
nan nan nan nan nan nan nan nan nan nan nan nan nan nan nan nan nan nan nan nan nan nan nan nan nan nan nan nan nan nan nan nan nan nan nan nan nan nan nan nan nan nan nan nan nan nan nan nan nan nan nan nan nan nan nan nan nan nan nan nan nan nan nan nan nan nan nan nan nan nan nan nan nan nan nan nan nan nan nan nan nan nan nan 32 32 31
nan nan nan nan nan nan nan nan nan nan nan nan nan nan nan nan nan nan nan nan nan nan nan nan nan nan nan nan nan nan nan nan nan nan nan nan nan nan nan nan nan nan nan nan nan nan nan nan nan nan nan nan nan nan nan nan nan nan nan nan nan nan nan nan nan nan nan nan nan nan nan nan nan nan nan nan nan nan nan nan nan nan nan nan nan nan
nan nan nan nan nan nan nan nan nan nan nan nan nan nan nan nan nan nan nan nan nan nan nan nan nan nan nan nan nan nan nan nan nan nan nan nan nan nan nan nan nan nan nan nan nan nan nan nan nan nan nan nan nan nan nan nan nan nan nan nan nan nan nan nan nan nan nan nan nan nan nan nan nan nan nan nan nan nan nan nan nan nan nan nan nan nan
nan nan nan nan nan nan nan nan nan nan nan nan nan nan nan nan nan nan nan nan nan nan nan nan nan nan nan nan nan nan nan nan nan nan nan nan nan nan nan nan nan nan nan nan nan nan nan nan nan nan nan nan nan nan nan nan nan nan nan nan nan nan nan nan nan nan nan nan nan nan nan nan nan nan nan nan nan nan nan nan nan nan nan nan nan nan
nan nan nan nan nan nan nan nan nan nan nan nan nan nan nan nan nan nan nan nan nan nan nan nan nan nan nan nan nan nan nan nan nan nan nan nan nan nan nan nan nan nan nan nan nan nan nan nan nan nan nan nan nan nan nan nan nan nan nan nan nan nan nan nan nan nan nan nan nan nan nan nan nan nan nan nan nan nan nan nan nan nan nan nan nan nan
nan nan nan nan nan nan nan nan nan nan nan nan nan nan nan nan nan nan nan nan nan nan nan nan nan nan nan nan nan nan nan nan nan nan nan nan nan nan nan nan nan nan nan nan nan nan nan nan nan nan nan nan nan nan nan nan nan nan nan nan nan nan nan nan nan nan nan nan nan nan nan nan nan nan nan nan nan nan nan nan nan nan nan nan nan nan
nan nan nan nan nan nan nan nan nan nan nan nan nan nan nan nan nan nan nan nan nan nan nan nan nan nan nan nan nan nan nan nan nan nan nan nan nan nan nan nan nan nan nan nan nan nan nan nan nan nan nan nan nan nan nan nan nan nan nan nan nan nan nan nan nan nan nan nan nan nan nan nan nan nan nan nan nan nan nan nan nan nan nan nan nan nan
nan nan nan nan nan nan nan nan nan nan nan nan nan nan nan nan nan nan nan nan nan nan nan nan nan nan nan nan nan nan nan nan nan nan nan nan nan nan nan nan nan nan nan nan nan nan nan nan nan nan nan nan nan nan nan nan nan nan nan nan nan nan nan nan nan nan nan nan nan nan nan nan nan nan nan nan nan nan nan nan nan nan nan nan nan nan
nan nan nan nan nan nan nan nan nan nan nan nan nan nan nan nan nan nan nan nan nan nan nan nan nan nan nan nan nan nan nan nan nan nan nan nan nan nan nan nan nan nan nan nan nan nan nan nan nan nan nan nan nan nan nan nan nan nan nan nan nan nan nan nan nan nan nan nan nan nan nan nan nan nan nan nan nan nan nan nan nan nan nan nan nan nan
nan nan nan nan nan nan nan nan nan nan nan nan nan nan nan nan nan nan nan nan nan nan nan nan nan nan nan nan nan nan nan nan nan nan nan nan nan nan nan nan nan nan nan nan nan nan nan nan nan nan nan nan nan nan nan nan nan nan nan nan nan nan nan nan nan nan nan nan nan nan nan nan nan nan nan nan nan nan nan nan nan nan nan nan nan nan
nan nan nan nan nan nan nan nan nan nan nan nan nan nan nan nan nan nan nan nan nan nan nan nan nan nan nan nan nan nan nan nan nan nan nan nan nan nan nan nan nan nan nan nan nan nan nan nan nan nan nan nan nan nan nan nan nan nan nan nan nan nan nan nan nan nan nan nan nan nan nan nan nan nan nan nan nan nan nan nan nan nan nan nan nan nan
nan nan nan nan nan nan nan nan nan nan nan nan nan nan nan nan nan nan nan nan nan nan nan nan nan nan nan nan nan nan nan nan nan nan nan nan nan nan nan nan nan nan nan nan nan nan nan nan nan nan nan nan nan nan nan nan nan nan nan nan nan nan nan nan nan nan nan nan nan nan nan nan nan nan nan nan nan nan nan nan nan nan nan nan nan nan
nan nan nan nan nan nan nan nan nan nan nan nan nan nan nan nan nan nan nan nan nan nan nan nan nan nan nan nan nan nan nan nan nan nan nan nan nan nan nan nan nan nan nan nan nan nan nan nan nan nan nan nan nan nan nan nan nan nan nan nan nan nan nan nan nan nan nan nan nan nan nan nan nan nan nan nan nan nan nan nan nan nan nan nan nan nan
nan nan nan nan nan nan nan nan nan nan nan nan nan nan nan nan nan nan nan nan nan nan nan nan nan nan nan nan nan nan nan nan nan nan nan nan nan nan nan nan nan nan nan nan nan nan nan nan nan nan nan nan nan nan nan nan nan nan nan nan nan nan nan nan nan nan nan nan nan nan nan nan nan nan nan nan nan nan nan nan nan nan nan nan nan nan
Wind_Direction
nan nan nan nan nan nan nan nan nan nan nan nan nan nan nan nan nan nan nan nan nan nan nan nan nan nan nan nan nan nan 252 254 248 251 255 260 267 265 260 261 258 254 269 261 255 275 297 303 300 295 289 287 288 291 299 302 301 300 302 301 302 297 294 291 289 285 280 269 256 247 249 248 242 238 227 220 220 224 227 230 234 232 230 228 237 243
nan nan nan nan nan nan nan nan nan nan nan nan nan nan nan nan nan nan nan nan nan nan nan nan nan nan nan nan nan nan nan 253 252 252 256 263 263 260 267 267 269 272 256 256 268 289 302 309 303 294 291 294 299 300 300 303 304 303 304 306 299 293 293 294 291 285 280 269 263 258 257 253 254 250 238 220 218 226 236 241 239 234 232 230 237 248
nan nan nan nan nan nan nan nan nan nan nan nan nan nan nan nan nan nan nan nan nan nan nan nan nan nan nan nan nan nan nan 252 259 265 268 269 265 262 269 275 283 285 284 275 281 299 300 308 306 295 295 301 298 302 301 298 299 303 306 302 297 292 293 291 288 282 277 260 259 257 255 263 256 239 232 228 234 239 242 236 229 229 233 233 235 247
nan nan nan nan nan nan nan nan nan nan nan nan nan nan nan nan nan nan nan nan nan nan nan nan nan nan nan nan nan nan nan nan 239 247 256 263 265 271 289 295 297 297 296 296 300 306 303 309 307 300 303 303 299 301 301 304 307 305 306 300 293 290 290 291 287 279 269 269 261 251 258 251 247 244 230 225 232 230 225 214 208 211 225 232 242 247
nan nan nan nan nan nan nan nan nan nan nan nan nan nan nan nan nan nan nan nan nan nan nan nan nan nan nan nan nan 209 nan nan nan 233 233 237 257 280 287 287 295 305 296 292 305 305 304 312 318 311 306 306 309 309 302 309 310 305 309 304 295 291 290 286 283 275 269 263 254 251 246 240 226 216 220 226 221 213 201 199 201 205 218 231 240 243
nan nan nan nan nan nan nan nan nan nan nan nan nan nan nan nan nan nan nan nan nan nan nan nan nan nan nan nan nan 203 216 nan 236 253 249 258 261 272 293 297 281 275 283 298 308 306 306 310 309 310 310 315 312 307 303 302 304 299 297 291 285 283 279 277 274 270 266 265 263 256 250 237 217 215 225 229 226 205 198 196 190 209 228 240 245 249
nan nan nan nan nan nan nan nan nan nan nan nan nan nan nan nan nan nan nan nan nan nan nan nan nan nan nan nan nan 205 226 231 228 246 265 266 270 282 289 289 289 296 292 279 276 287 298 304 308 308 308 311 309 303 295 296 297 295 290 285 281 278 272 268 266 261 260 258 258 259 250 236 228 225 208 205 199 205 190 199 213 227 233 251 261 250
nan nan nan nan nan nan nan nan nan nan nan nan nan nan nan nan nan nan nan nan nan nan nan nan nan nan nan nan nan 207 235 241 245 250 262 260 267 271 275 282 284 290 290 288 286 289 291 297 306 308 304 303 301 294 293 294 291 293 289 284 276 269 268 264 259 256 257 258 254 248 238 236 230 225 222 209 202 198 201 216 223 235 239 240 244 nan
nan nan nan nan nan nan nan nan nan nan nan nan nan nan nan nan nan nan nan nan nan nan nan nan nan nan nan nan 208 215 234 241 255 264 260 254 251 254 263 275 283 278 276 279 283 295 299 311 314 309 304 298 293 291 293 293 287 281 276 272 269 268 266 260 255 257 255 254 252 242 232 226 212 218 224 213 202 208 209 225 225 239 244 246 nan nan
nan nan nan nan nan nan nan nan nan nan nan nan nan nan nan nan nan nan nan nan nan nan nan nan nan nan nan nan 199 213 231 252 262 268 260 251 251 248 255 260 257 260 271 279 283 294 307 315 309 304 295 293 292 288 283 280 280 276 271 271 271 266 263 258 253 255 254 250 243 237 230 230 215 218 221 216 212 211 215 227 228 237 245 246 nan nan
nan nan nan nan nan nan nan nan nan nan nan nan nan nan nan nan nan nan nan nan nan nan nan nan nan nan nan nan nan 218 223 240 249 246 248 253 252 250 250 256 264 273 280 281 286 297 303 300 301 301 296 289 287 284 284 284 280 274 270 269 266 263 260 258 257 259 258 246 236 233 234 232 227 226 229 223 215 217 218 229 229 238 nan nan nan nan
nan nan nan nan nan nan nan nan nan nan nan nan nan nan nan nan nan nan nan nan nan nan nan nan nan nan nan 201 196 208 220 252 270 274 276 269 266 266 258 254 265 273 276 277 279 290 294 296 300 302 299 293 290 291 293 286 279 274 269 266 263 258 259 260 264 260 252 245 236 234 238 232 225 225 nan 225 228 226 228 nan nan nan nan nan nan nan
nan nan nan nan nan nan nan nan nan nan nan nan nan nan nan nan nan nan nan nan nan nan nan nan nan nan nan 209 209 204 215 256 248 263 281 278 270 256 253 260 267 272 277 280 288 300 300 297 298 304 302 300 300 303 303 288 276 269 267 267 267 261 257 262 263 260 247 242 237 234 230 217 216 224 226 225 228 227 237 240 nan nan nan nan nan nan
nan nan nan nan nan nan nan nan nan nan nan nan nan nan nan nan nan nan nan nan nan nan nan nan nan nan nan 203 210 204 213 248 247 241 252 266 268 261 259 260 262 264 269 273 277 285 290 298 295 293 294 300 297 298 296 286 279 273 270 270 270 264 256 255 257 253 244 238 233 222 218 213 217 227 nan 236 238 234 242 247 nan nan nan nan nan nan
nan nan nan nan nan nan nan nan nan nan nan nan nan nan nan nan nan nan nan nan nan nan nan nan nan nan 220 216 207 211 228 243 243 248 253 260 265 266 263 258 249 246 244 246 256 274 285 294 296 292 292 292 291 296 296 288 281 277 278 276 271 259 246 244 243 237 236 235 231 218 216 221 221 232 238 243 246 250 248 nan nan nan nan nan nan nan
nan nan nan nan nan nan nan nan nan nan nan nan nan nan nan nan nan nan nan nan nan nan nan 215 226 230 231 224 221 218 227 235 243 252 258 264 258 258 255 253 258 266 259 254 255 258 272 287 292 288 283 281 287 302 295 289 284 284 283 281 276 265 247 235 231 227 232 233 229 222 224 225 228 nan 236 237 238 242 249 251 255 nan nan nan nan nan
nan nan nan nan nan nan nan nan nan nan nan nan nan nan nan nan nan nan nan nan nan nan nan 226 228 231 232 234 231 223 223 218 221 232 245 249 248 250 243 239 236 235 239 237 224 205 228 255 274 266 257 262 278 290 284 279 281 283 280 279 274 258 245 238 234 234 233 236 233 226 225 226 228 237 242 244 nan 247 247 254 256 nan nan nan nan nan
nan nan nan nan nan nan nan nan nan nan nan nan nan nan nan nan nan nan nan nan nan nan nan 229 233 232 238 242 235 230 225 222 217 220 228 234 237 236 232 231 234 236 237 229 214 206 212 224 230 226 220 227 236 244 250 256 259 259 261 270 266 254 249 237 235 235 236 238 236 232 228 226 232 237 240 nan nan 248 253 253 nan nan nan nan nan nan
nan nan nan nan nan nan nan nan nan nan nan nan nan nan nan nan nan nan nan nan nan nan nan 230 234 238 nan 247 243 242 235 226 231 230 225 223 226 228 230 231 233 236 235 228 224 227 225 228 227 217 213 214 218 226 227 233 242 246 247 244 239 241 240 237 231 227 229 236 235 235 235 236 235 240 nan 251 254 255 nan nan nan nan nan nan nan nan
nan nan nan nan nan nan nan nan nan nan nan nan nan nan nan nan nan nan nan nan nan nan nan 232 238 242 245 249 246 245 246 233 237 250 234 219 225 231 234 236 237 235 236 232 231 236 235 238 232 218 215 216 217 217 216 224 235 246 249 246 237 232 232 230 224 212 217 241 252 253 251 250 254 nan nan nan nan nan nan 270 nan nan nan nan nan nan
nan nan nan nan nan nan nan nan nan nan nan nan nan nan nan nan nan nan nan nan nan nan nan nan nan nan 241 246 243 249 248 232 225 241 236 223 231 242 243 246 238 234 233 232 234 239 242 242 241 232 224 223 222 217 211 213 227 242 251 247 240 238 238 235 226 222 228 247 257 269 270 262 254 nan nan nan nan 263 267 nan nan nan nan nan nan nan
nan nan nan nan nan nan nan nan nan nan nan nan nan nan nan nan nan nan nan nan nan nan nan nan nan 236 235 240 240 243 247 263 269 243 236 220 233 242 250 248 239 232 238 247 249 252 254 258 256 245 242 240 232 222 214 210 222 234 240 238 239 243 250 257 253 249 255 258 258 260 262 259 252 nan nan nan nan nan 277 nan nan nan nan nan nan nan
nan nan nan nan nan nan nan nan nan nan nan nan nan nan nan nan nan nan nan nan nan nan nan nan nan 236 236 234 238 242 245 244 241 241 247 243 244 250 250 259 255 245 245 251 260 269 270 269 264 259 250 245 233 223 225 225 234 242 246 245 248 253 251 249 242 236 239 244 247 248 248 249 248 nan nan nan nan nan 283 nan nan nan nan nan nan nan
226 nan nan nan nan nan nan nan nan nan nan nan nan nan nan nan nan nan nan nan nan nan nan nan nan 239 236 240 245 249 252 250 249 256 256 248 244 248 252 259 264 266 261 258 260 264 267 261 254 254 257 251 244 237 242 247 nan 256 261 258 255 259 258 252 245 244 246 246 246 nan nan 255 nan nan nan nan nan nan nan nan nan nan nan nan nan nan
nan nan nan nan nan nan nan nan nan nan nan nan nan nan nan nan nan nan nan nan nan nan nan nan nan 240 241 242 250 253 253 255 257 258 261 267 259 253 254 257 264 268 265 261 257 260 268 262 257 nan 242 234 231 238 245 254 257 257 nan 256 252 255 259 258 254 253 251 251 nan nan nan nan nan nan nan nan nan nan nan nan nan nan nan nan nan nan
nan nan nan nan nan nan nan nan nan nan nan nan nan nan nan nan nan nan nan nan nan nan nan nan 244 240 250 254 255 257 259 258 257 258 252 250 247 250 249 249 246 245 247 248 248 249 252 254 254 250 nan 233 235 243 250 253 254 252 252 253 259 271 272 271 267 262 255 nan nan 256 255 nan nan nan nan nan nan nan nan nan nan nan nan nan nan nan
nan nan nan nan nan nan nan nan nan nan nan nan nan nan nan nan nan nan nan nan nan nan nan nan 249 259 262 267 265 262 263 265 265 261 256 256 254 248 245 242 240 241 243 244 246 245 246 246 244 242 237 237 240 245 252 255 255 253 251 254 262 264 267 271 267 261 259 nan nan 263 264 263 nan 261 nan nan nan nan nan nan nan nan nan nan nan nan
nan nan nan nan nan nan nan nan nan nan nan nan nan nan nan nan nan nan nan nan nan nan nan nan 247 256 262 269 269 264 266 267 265 258 258 260 258 251 246 245 249 251 249 248 248 247 247 nan nan 237 238 242 246 251 252 249 nan 245 nan nan 253 nan 260 260 264 270 272 273 269 267 267 266 nan nan nan nan nan nan nan nan nan nan nan nan nan nan
nan nan nan nan nan nan nan nan nan nan nan nan nan nan nan nan nan nan nan nan nan nan 248 250 250 252 253 256 260 258 259 261 261 255 254 257 254 246 244 247 250 252 249 248 247 nan nan nan nan 240 243 244 245 246 250 250 nan nan nan nan nan 247 nan 255 261 267 274 275 277 nan 272 271 nan nan nan nan nan nan nan nan nan nan nan nan nan nan
nan nan nan nan nan nan nan nan nan nan nan nan nan nan nan nan nan nan nan nan nan nan 247 257 253 245 nan 238 244 249 255 256 253 250 248 248 248 248 246 245 244 244 248 249 249 nan nan nan nan nan 247 245 244 244 244 243 nan nan nan nan nan 240 243 248 250 259 265 272 267 262 261 nan nan nan nan nan nan nan nan nan nan nan nan nan nan nan
nan nan nan nan nan nan nan nan nan nan nan nan nan nan nan nan nan nan nan nan nan nan nan 250 253 247 nan 241 246 245 249 252 250 249 248 245 245 250 251 nan 242 245 245 246 nan nan nan nan nan nan nan 240 241 nan nan nan nan nan nan nan nan nan nan 243 243 242 244 243 242 nan nan nan nan nan nan nan nan nan nan nan nan nan nan nan nan nan
nan nan nan nan nan nan nan nan nan nan nan nan nan nan nan nan nan nan nan nan nan nan nan nan nan 250 nan 250 251 244 244 246 248 248 246 243 244 246 248 246 245 244 242 nan 234 228 225 nan nan nan nan 241 242 nan nan nan nan nan 228 230 232 234 238 239 239 238 233 232 235 nan nan nan nan nan nan nan nan nan nan nan nan nan 265 nan nan nan
nan nan nan nan nan nan nan nan nan nan nan nan nan nan nan nan nan nan nan nan nan nan nan nan nan nan nan 256 257 248 247 248 246 242 246 248 249 251 251 249 245 240 234 nan nan nan nan nan nan nan nan nan nan nan nan nan nan nan nan nan nan 236 238 nan 238 237 234 231 234 nan nan nan nan nan nan nan nan nan nan 256 253 253 257 nan nan nan
nan nan nan nan nan nan nan nan nan nan nan nan nan nan nan nan nan nan nan nan nan nan nan nan nan nan nan nan 259 257 252 251 252 250 247 250 259 nan 260 257 246 241 237 nan nan nan nan nan nan nan nan nan nan nan nan nan nan nan nan nan nan nan nan 243 242 241 239 235 231 nan nan nan nan nan nan nan nan nan nan nan 247 250 255 258 250 254
nan nan nan nan nan nan nan nan nan nan nan nan nan nan nan nan nan nan nan nan nan nan nan nan 248 nan nan 253 255 257 257 nan nan 254 251 251 255 nan nan nan 252 243 242 nan nan nan nan nan nan nan nan nan nan nan nan nan nan nan nan nan nan nan nan nan nan nan nan 239 236 233 nan nan 233 nan nan nan nan nan nan nan nan 247 nan 248 254 263
nan nan nan nan nan nan nan nan nan nan nan nan nan nan nan nan nan nan nan nan nan nan nan nan 255 257 258 nan 256 nan nan nan nan nan 253 nan nan nan nan nan nan 241 242 244 nan nan nan nan nan nan nan nan nan nan nan nan nan nan nan nan nan nan nan nan nan nan nan nan nan nan nan nan nan 238 239 240 242 nan nan nan nan nan nan nan 252 nan
nan nan nan nan nan nan nan nan nan nan nan nan nan nan nan nan nan nan nan nan nan nan nan nan nan nan nan nan nan nan nan nan nan nan nan nan nan nan nan nan nan nan nan nan nan nan nan nan nan nan nan nan nan nan nan nan nan nan nan nan nan nan nan nan nan nan nan nan nan nan nan nan nan 242 244 245 247 249 252 255 254 252 252 253 255 259
nan nan nan nan nan nan nan nan nan nan nan nan nan nan nan nan nan nan nan nan nan nan nan nan nan nan nan nan nan nan nan nan nan nan nan nan nan nan nan nan nan nan nan nan nan nan nan nan nan nan nan nan nan nan nan nan nan nan nan nan nan nan nan nan nan nan nan nan nan nan nan nan nan nan nan nan nan nan nan nan nan nan nan 256 258 260
nan nan nan nan nan nan nan nan nan nan nan nan nan nan nan nan nan nan nan nan nan nan nan nan nan nan nan nan nan nan nan nan nan nan nan nan nan nan nan nan nan nan nan nan nan nan nan nan nan nan nan nan nan nan nan nan nan nan nan nan nan nan nan nan nan nan nan nan nan nan nan nan nan nan nan nan nan nan nan nan nan nan nan nan nan nan
nan nan nan nan nan nan nan nan nan nan nan nan nan nan nan nan nan nan nan nan nan nan nan nan nan nan nan nan nan nan nan nan nan nan nan nan nan nan nan nan nan nan nan nan nan nan nan nan nan nan nan nan nan nan nan nan nan nan nan nan nan nan nan nan nan nan nan nan nan nan nan nan nan nan nan nan nan nan nan nan nan nan nan nan nan nan
nan nan nan nan nan nan nan nan nan nan nan nan nan nan nan nan nan nan nan nan nan nan nan nan nan nan nan nan nan nan nan nan nan nan nan nan nan nan nan nan nan nan nan nan nan nan nan nan nan nan nan nan nan nan nan nan nan nan nan nan nan nan nan nan nan nan nan nan nan nan nan nan nan nan nan nan nan nan nan nan nan nan nan nan nan nan
nan nan nan nan nan nan nan nan nan nan nan nan nan nan nan nan nan nan nan nan nan nan nan nan nan nan nan nan nan nan nan nan nan nan nan nan nan nan nan nan nan nan nan nan nan nan nan nan nan nan nan nan nan nan nan nan nan nan nan nan nan nan nan nan nan nan nan nan nan nan nan nan nan nan nan nan nan nan nan nan nan nan nan nan nan nan
nan nan nan nan nan nan nan nan nan nan nan nan nan nan nan nan nan nan nan nan nan nan nan nan nan nan nan nan nan nan nan nan nan nan nan nan nan nan nan nan nan nan nan nan nan nan nan nan nan nan nan nan nan nan nan nan nan nan nan nan nan nan nan nan nan nan nan nan nan nan nan nan nan nan nan nan nan nan nan nan nan nan nan nan nan nan
nan nan nan nan nan nan nan nan nan nan nan nan nan nan nan nan nan nan nan nan nan nan nan nan nan nan nan nan nan nan nan nan nan nan nan nan nan nan nan nan nan nan nan nan nan nan nan nan nan nan nan nan nan nan nan nan nan nan nan nan nan nan nan nan nan nan nan nan nan nan nan nan nan nan nan nan nan nan nan nan nan nan nan nan nan nan
nan nan nan nan nan nan nan nan nan nan nan nan nan nan nan nan nan nan nan nan nan nan nan nan nan nan nan nan nan nan nan nan nan nan nan nan nan nan nan nan nan nan nan nan nan nan nan nan nan nan nan nan nan nan nan nan nan nan nan nan nan nan nan nan nan nan nan nan nan nan nan nan nan nan nan nan nan nan nan nan nan nan nan nan nan nan
nan nan nan nan nan nan nan nan nan nan nan nan nan nan nan nan nan nan nan nan nan nan nan nan nan nan nan nan nan nan nan nan nan nan nan nan nan nan nan nan nan nan nan nan nan nan nan nan nan nan nan nan nan nan nan nan nan nan nan nan nan nan nan nan nan nan nan nan nan nan nan nan nan nan nan nan nan nan nan nan nan nan nan nan nan nan
nan nan nan nan nan nan nan nan nan nan nan nan nan nan nan nan nan nan nan nan nan nan nan nan nan nan nan nan nan nan nan nan nan nan nan nan nan nan nan nan nan nan nan nan nan nan nan nan nan nan nan nan nan nan nan nan nan nan nan nan nan nan nan nan nan nan nan nan nan nan nan nan nan nan nan nan nan nan nan nan nan nan nan nan nan nan
nan nan nan nan nan nan nan nan nan nan nan nan nan nan nan nan nan nan nan nan nan nan nan nan nan nan nan nan nan nan nan nan nan nan nan nan nan nan nan nan nan nan nan nan nan nan nan nan nan nan nan nan nan nan nan nan nan nan nan nan nan nan nan nan nan nan nan nan nan nan nan nan nan nan nan nan nan nan nan nan nan nan nan nan nan nan
nan nan nan nan nan nan nan nan nan nan nan nan nan nan nan nan nan nan nan nan nan nan nan nan nan nan nan nan nan nan nan nan nan nan nan nan nan nan nan nan nan nan nan nan nan nan nan nan nan nan nan nan nan nan nan nan nan nan nan nan nan nan nan nan nan nan nan nan nan nan nan nan nan nan nan nan nan nan nan nan nan nan nan nan nan nan
nan nan nan nan nan nan nan nan nan nan nan nan nan nan nan nan nan nan nan nan nan nan nan nan nan nan nan nan nan nan nan nan nan nan nan nan nan nan nan nan nan nan nan nan nan nan nan nan nan nan nan nan nan nan nan nan nan nan nan nan nan nan nan nan nan nan nan nan nan nan nan nan nan nan nan nan nan nan nan nan nan nan nan nan nan nan
nan nan nan nan nan nan nan nan nan nan nan nan nan nan nan nan nan nan nan nan nan nan nan nan nan nan nan nan nan nan nan nan nan nan nan nan nan nan nan nan nan nan nan nan nan nan nan nan nan nan nan nan nan nan nan nan nan nan nan nan nan nan nan nan nan nan nan nan nan nan nan nan nan nan nan nan nan nan nan nan nan nan nan nan nan nan